[[{"header":{"parameterUnit":"m.s-1","parameterCategory":1,"la1":30.2991,"la2":30.254,"lo1":-89.0895,"lo2":-89.0444,"dy":0.0017,"dx":0.0017,"nx":28,"ny":28,"refTime":"2025-01-26T09:00:00:Z","depth":0,"parameterNumber":2,"parameterNumberName":"U-component_of_WINDS"},"data":[0,0,0,0,0,0,0,0,0,0,0,0,0,0,0,0,0,0,0,0,0,0,0,0,0,0,0,0,0,0,0,0,0,0,0,0,0,0,0,0,0,0,0,0,0,0,0,0,0,0,0,0,0,0,0,0,0,0,1.084,1.0841,0,1.089,1.0891,1.0891,1.0897,1.0897,1.0896,1.0896,1.0948,1.0949,1.0951,0,0,0,0,0,0,0,0,0,0,0,0,0,1.0753,1.0755,1.084,1.0841,1.0841,1.089,1.0891,1.0891,1.0897,1.0897,1.0896,1.0896,1.0947,1.0949,1.0951,0,0,0,0,0,0,0,0,0,0,0,0,0,1.0796,1.0755,1.084,1.085,1.0852,1.089,1.0891,1.0891,1.0898,1.0897,1.0896,1.0895,1.0946,1.0949,1.0952,1.0983,0,0,1.096,1.0961,0,0,0,0,0,0,0,0,1.0793,1.0799,1.0848,1.085,1.0851,1.0887,1.0879,1.0922,1.0898,1.088,1.0896,1.0895,1.0928,1.0932,1.0943,1.0985,1.0988,1.096,1.0962,1.0963,1.0964,0,0,0,0,0,0,0,1.079,1.0797,1.086,1.0849,1.0851,1.0853,1.0859,1.0887,1.0908,1.0882,1.0882,1.0888,1.0929,1.094,1.0944,1.0988,1.096,1.0963,1.0964,1.0965,1.1063,1.1064,0,0,0,0,0,0,1.0785,1.0794,1.0858,1.0861,1.082,1.0855,1.0861,1.0876,1.0907,1.0911,1.0889,1.0888,1.0936,1.0941,1.0946,1.0987,1.0963,1.0966,1.0967,1.1062,1.1063,1.1064,0,0,0,0,0,0,1.0783,1.0791,1.0856,1.0828,1.0837,1.0858,1.0874,1.0877,1.0889,1.0912,1.0916,1.0897,1.0936,1.0942,1.0975,1.0989,1.0967,1.0969,1.1061,1.1062,1.1063,1.1068,0,0,0,0,0,0,1.0781,1.079,1.0801,1.0828,1.0838,1.0883,1.0875,1.0879,1.0894,1.0894,1.0921,1.0925,1.0936,1.097,1.0977,1.0992,1.0971,1.1059,1.1061,1.1063,1.1067,1.107,1.1072,0,0,0,0,0,1.0778,1.08,1.0802,1.081,1.0852,1.0884,1.0889,1.0901,1.0895,1.0907,1.0923,1.0924,1.0986,1.0974,1.0981,1.0998,1.1059,1.1061,1.1063,1.1066,1.1069,1.1072,0,0,0,0,0,0,1.0774,1.0804,1.0806,1.0838,1.0858,1.0885,1.09,1.0904,1.0926,1.0925,1.0939,1.0945,1.0978,1.0991,1.0976,1.1031,1.1022,1.1026,1.1022,1.1025,1.1027,1.1024,1.0974,0,0,0,0,0,1.0777,1.0799,1.0824,1.085,1.086,1.0878,1.0892,1.09,1.0922,1.093,1.0948,1.097,1.0995,1.101,1.1034,1.1069,1.1076,1.1084,1.1087,1.1089,1.1092,1.1114,1.1119,1.1071,1.1071,1.1071,0,0,1.0783,1.0802,1.0815,1.085,1.0866,1.089,1.0886,1.091,1.0929,1.0934,1.0966,1.098,1.1006,1.104,1.1056,1.1052,1.1107,1.1091,1.1093,1.1095,1.1117,1.1122,1.1126,1.1072,1.1072,1.1072,0,0,1.0807,1.0822,1.0847,1.0864,1.089,1.0903,1.0909,1.0935,1.0945,1.0977,1.0983,1.1006,1.1047,1.1066,1.1081,1.1115,1.1118,1.1122,1.1136,1.1157,1.1161,1.1165,1.1179,1.1184,1.1125,1.1125,1.1125,0,1.0811,1.0847,1.0859,1.0885,1.0901,1.0908,1.0934,1.095,1.0982,1.0994,1.0989,1.1043,1.106,1.1101,1.1109,1.112,1.1129,1.1119,1.116,1.1163,1.1167,1.1181,1.1186,1.1126,1.1126,1.1126,1.1126,0,1.0852,1.0877,1.0894,1.0926,1.0944,1.0969,1.0987,1.1004,1.101,1.1024,1.1059,1.108,1.111,1.112,1.1126,1.1162,1.1159,1.1157,1.1148,1.1172,1.1185,1.119,1.1127,1.1126,1.1126,1.1126,0,0,1.0873,1.0914,1.092,1.0936,1.0966,1.0986,1.1013,1.1042,1.1058,1.108,1.1105,1.1141,1.114,1.1157,1.1166,1.1185,1.1214,1.1181,1.1182,1.1188,1.1258,1.126,1.1266,1.1216,1.1217,1.1218,1.1257,0,1.0902,1.0949,1.0963,1.1004,1.1028,1.1037,1.1061,1.1083,1.1097,1.1121,1.1137,1.1163,1.1159,1.117,1.1189,1.1206,1.1228,1.1203,1.1241,1.1242,1.1235,1.1273,1.1275,1.131,1.1262,1.1262,1.1263,0,1.0941,1.0965,1.1009,1.1039,1.105,1.1071,1.1101,1.1123,1.1149,1.1158,1.1179,1.1187,1.1217,1.1207,1.125,1.1233,1.1249,1.126,1.1262,1.1267,1.1254,1.128,1.1321,1.1327,1.1271,1.127,1.127,0,1.0954,1.0998,1.1031,1.1044,1.1079,1.1094,1.111,1.1135,1.1153,1.1179,1.1192,1.1221,1.1237,1.126,1.1277,1.1267,1.132,1.131,1.133,1.133,1.1341,1.134,1.1387,1.1349,1.1349,1.1349,1.1349,0,1.0985,1.1012,1.1038,1.1058,1.1089,1.1105,1.1136,1.1152,1.1175,1.12,1.1209,1.1232,1.1252,1.1278,1.1291,1.1327,1.1333,1.1343,1.1347,1.1343,1.1342,1.1354,1.1353,1.1351,1.135,1.135,1.135,0,1.1005,1.1023,1.106,1.1091,1.11,1.1122,1.1149,1.117,1.1185,1.1216,1.1225,1.1249,1.1281,1.13,1.134,1.1349,1.1389,1.139,1.138,1.1382,1.1402,1.14,1.1459,1.1469,1.1423,1.1423,1.1424,0,1.1024,1.1045,1.1079,1.1097,1.1113,1.114,1.1159,1.1176,1.1196,1.1229,1.1247,1.1279,1.1306,1.1357,1.1379,1.1411,1.1414,1.1433,1.1419,1.1416,1.1417,1.1416,1.1419,1.1435,1.1435,1.1436,1.1436,0,1.1057,1.1066,1.1092,1.1123,1.1145,1.117,1.1195,1.1209,1.123,1.1252,1.1285,1.1306,1.1349,1.1382,1.1416,1.1433,1.1439,1.144,1.1447,1.1444,1.1438,1.1444,1.1388,1.1439,1.1439,1.1438,1.1438,1.1438,1.1078,1.1099,1.1126,1.1157,1.1177,1.1201,1.1223,1.1242,1.127,1.1305,1.1314,1.135,1.1379,1.1425,1.1444,1.1473,1.147,1.1479,1.1481,1.1484,1.1486,1.1433,1.1479,1.1479,1.1479,1.1479,1.1478,0,1.1113,1.1132,1.1159,1.1195,1.1219,1.1223,1.1251,1.1272,1.1303,1.1329,1.1356,1.1396,1.1429,1.1454,1.1489,1.1507,1.1511,1.1516,1.1515,1.152,1.1485,1.1477,1.1512,1.1512,1.1512,1.1512,1.1512,1.1512,1.1134,1.1169,1.1182,1.1229,1.1248,1.1282,1.1299,1.1322,1.1343,1.1387,1.1415,1.1431,1.1458,1.1495,1.1526,1.1533,1.1546,1.1551,1.1559,1.1526,1.1522,1.1518,1.1511,1.1553,1.1553,1.1591,1.1592,1.1592]},{"header":{"parameterUnit":"m.s-1","parameterCategory":1,"la1":30.2991,"la2":30.254,"lo1":-89.0895,"lo2":-89.0444,"dy":0.0017,"dx":0.0017,"nx":28,"ny":28,"refTime":"2025-01-26T09:00:00:Z","depth":0,"parameterNumber":3,"parameterNumberName":"V-component_of_WINDS"},"data":[0,0,0,0,0,0,0,0,0,0,0,0,0,0,0,0,0,0,0,0,0,0,0,0,0,0,0,0,0,0,0,0,0,0,0,0,0,0,0,0,0,0,0,0,0,0,0,0,0,0,0,0,0,0,0,0,0,0,-3.8125,-3.8125,0,-3.8177,-3.8177,-3.8178,-3.8216,-3.8216,-3.8216,-3.8217,-3.8265,-3.8266,-3.8267,0,0,0,0,0,0,0,0,0,0,0,0,0,-3.8056,-3.8057,-3.8125,-3.8125,-3.8126,-3.8177,-3.8177,-3.8178,-3.8215,-3.8216,-3.8216,-3.8217,-3.8265,-3.8266,-3.8267,0,0,0,0,0,0,0,0,0,0,0,0,0,-3.8094,-3.8057,-3.8125,-3.8151,-3.8154,-3.8176,-3.8177,-3.8178,-3.8215,-3.8216,-3.8216,-3.8217,-3.8264,-3.8266,-3.8267,-3.8266,0,0,-3.8272,-3.8272,0,0,0,0,0,0,0,0,-3.8092,-3.8097,-3.8146,-3.8149,-3.8153,-3.819,-3.8171,-3.8208,-3.8215,-3.8192,-3.8217,-3.8217,-3.824,-3.8243,-3.8252,-3.8269,-3.8271,-3.8272,-3.8273,-3.8274,-3.8274,0,0,0,0,0,0,0,-3.8089,-3.8095,-3.8145,-3.8147,-3.8151,-3.8159,-3.8165,-3.8178,-3.8212,-3.8194,-3.8197,-3.8203,-3.8241,-3.825,-3.8253,-3.8271,-3.8272,-3.8273,-3.8274,-3.8275,-3.8291,-3.8291,0,0,0,0,0,0,-3.8083,-3.8092,-3.8143,-3.8147,-3.8123,-3.816,-3.8167,-3.8178,-3.8212,-3.8218,-3.8202,-3.8204,-3.8247,-3.8251,-3.8255,-3.8256,-3.8273,-3.8275,-3.8276,-3.8292,-3.8291,-3.8291,0,0,0,0,0,0,-3.8081,-3.8087,-3.8141,-3.812,-3.8128,-3.8161,-3.8172,-3.8178,-3.8187,-3.8218,-3.8224,-3.8205,-3.8248,-3.8253,-3.8264,-3.8259,-3.8276,-3.8277,-3.8292,-3.8292,-3.8291,-3.8259,0,0,0,0,0,0,-3.8079,-3.8086,-3.8087,-3.812,-3.8129,-3.815,-3.8172,-3.8179,-3.819,-3.8193,-3.8223,-3.8228,-3.8249,-3.8261,-3.8265,-3.8261,-3.8278,-3.8293,-3.8292,-3.8291,-3.8261,-3.8257,-3.8254,0,0,0,0,0,-3.8077,-3.8074,-3.8087,-3.8093,-3.813,-3.815,-3.8155,-3.818,-3.819,-3.819,-3.821,-3.8227,-3.8259,-3.8262,-3.8267,-3.8263,-3.8293,-3.8292,-3.8291,-3.8262,-3.8258,-3.8255,0,0,0,0,0,0,-3.8037,-3.8079,-3.8093,-3.8102,-3.8122,-3.8156,-3.8157,-3.8174,-3.8191,-3.8193,-3.8222,-3.8229,-3.8237,-3.8251,-3.8254,-3.8264,-3.8278,-3.8278,-3.8254,-3.8251,-3.8248,-3.8243,-3.8279,0,0,0,0,0,-3.803,-3.8044,-3.8079,-3.8083,-3.8093,-3.8123,-3.8133,-3.8151,-3.8172,-3.8181,-3.8202,-3.8221,-3.8236,-3.8244,-3.8259,-3.8264,-3.827,-3.8263,-3.826,-3.8258,-3.8256,-3.826,-3.8258,-3.8288,-3.8288,-3.8288,0,0,-3.8014,-3.8039,-3.8045,-3.8076,-3.8094,-3.8106,-3.813,-3.8142,-3.8151,-3.8182,-3.8194,-3.821,-3.8234,-3.8242,-3.8246,-3.8254,-3.825,-3.8256,-3.8254,-3.8254,-3.8259,-3.8256,-3.8254,-3.8287,-3.8287,-3.8287,0,0,-3.7992,-3.8013,-3.8019,-3.8037,-3.8065,-3.8085,-3.8087,-3.8119,-3.8131,-3.8145,-3.8168,-3.8179,-3.8203,-3.822,-3.8231,-3.8217,-3.8233,-3.8222,-3.8205,-3.8208,-3.8206,-3.8204,-3.8198,-3.8196,-3.8221,-3.8221,-3.8221,0,-3.7968,-3.7989,-3.8019,-3.803,-3.8043,-3.8074,-3.808,-3.8096,-3.8126,-3.8134,-3.8143,-3.8175,-3.8193,-3.8206,-3.8203,-3.8211,-3.8213,-3.8217,-3.8204,-3.8202,-3.8201,-3.8196,-3.8194,-3.8219,-3.8219,-3.8219,-3.822,0,-3.7959,-3.7973,-3.7975,-3.8006,-3.8019,-3.8027,-3.8058,-3.8068,-3.8085,-3.8105,-3.8118,-3.8141,-3.8162,-3.8166,-3.8182,-3.8181,-3.8185,-3.8199,-3.8213,-3.8196,-3.8192,-3.819,-3.8217,-3.8217,-3.8218,-3.8218,0,0,-3.791,-3.796,-3.796,-3.7975,-3.8009,-3.802,-3.803,-3.8053,-3.806,-3.8081,-3.8089,-3.8111,-3.8124,-3.8137,-3.8156,-3.8159,-3.8147,-3.8172,-3.8173,-3.8166,-3.8147,-3.8135,-3.8133,-3.8158,-3.8158,-3.8158,-3.8144,0,-3.7893,-3.7914,-3.7942,-3.7953,-3.7967,-3.7998,-3.8007,-3.8028,-3.8048,-3.8061,-3.8082,-3.8096,-3.8113,-3.8121,-3.8126,-3.8147,-3.8143,-3.8149,-3.8165,-3.8166,-3.8157,-3.8131,-3.8119,-3.8104,-3.8143,-3.8143,-3.8143,0,-3.7874,-3.7895,-3.7908,-3.7943,-3.795,-3.7957,-3.7981,-3.7994,-3.8019,-3.8033,-3.8049,-3.807,-3.8081,-3.8096,-3.8112,-3.8115,-3.8124,-3.8136,-3.8136,-3.8137,-3.8152,-3.813,-3.8101,-3.8098,-3.8141,-3.8141,-3.8141,0,-3.7836,-3.7868,-3.7881,-3.7892,-3.7933,-3.7938,-3.7955,-3.7981,-3.7993,-3.8013,-3.8021,-3.8042,-3.8053,-3.8068,-3.8094,-3.8102,-3.8108,-3.8124,-3.8118,-3.8118,-3.8116,-3.8116,-3.8086,-3.8124,-3.8124,-3.8124,-3.8124,0,-3.7812,-3.7819,-3.7865,-3.7872,-3.788,-3.7913,-3.792,-3.794,-3.7964,-3.7975,-3.8003,-3.8012,-3.8047,-3.806,-3.8081,-3.8091,-3.8096,-3.8107,-3.8112,-3.8103,-3.8102,-3.8108,-3.8109,-3.8124,-3.8124,-3.8124,-3.8124,0,-3.777,-3.7801,-3.7817,-3.7856,-3.7866,-3.787,-3.7903,-3.7911,-3.7933,-3.7947,-3.7952,-3.7986,-3.8004,-3.8032,-3.8057,-3.8071,-3.8077,-3.8087,-3.8069,-3.8072,-3.8064,-3.8064,-3.8037,-3.8035,-3.8075,-3.8075,-3.8074,0,-3.7752,-3.7758,-3.7799,-3.7809,-3.7826,-3.7842,-3.7856,-3.7889,-3.7901,-3.7932,-3.7936,-3.7957,-3.7975,-3.8001,-3.8027,-3.8047,-3.8056,-3.8046,-3.8059,-3.8051,-3.8055,-3.8054,-3.8054,-3.8042,-3.8041,-3.804,-3.804,0,-3.7716,-3.7732,-3.7751,-3.7776,-3.7791,-3.7812,-3.7834,-3.784,-3.7878,-3.7891,-3.7911,-3.7925,-3.7953,-3.7972,-3.7996,-3.8013,-3.8032,-3.8036,-3.8036,-3.8026,-3.8016,-3.8021,-3.8059,-3.8036,-3.8036,-3.8037,-3.8037,-3.8037,-3.7685,-3.7692,-3.7722,-3.7743,-3.7764,-3.7784,-3.7794,-3.7819,-3.7836,-3.7862,-3.7881,-3.7899,-3.7926,-3.7961,-3.7977,-3.7991,-3.7999,-3.7999,-3.7998,-3.7997,-3.7994,-3.8015,-3.7995,-3.7996,-3.7996,-3.7996,-3.7996,0,-3.7649,-3.7671,-3.769,-3.7721,-3.7737,-3.7758,-3.7784,-3.7795,-3.7812,-3.7836,-3.7854,-3.7877,-3.7897,-3.7926,-3.7948,-3.7954,-3.7964,-3.7958,-3.7957,-3.7961,-3.7986,-3.7983,-3.795,-3.795,-3.795,-3.795,-3.795,-3.795,-3.7633,-3.7646,-3.7666,-3.7691,-3.7713,-3.7732,-3.7745,-3.7764,-3.7784,-3.7809,-3.7827,-3.7847,-3.7873,-3.7897,-3.7917,-3.7925,-3.7931,-3.7922,-3.7933,-3.7955,-3.7959,-3.7963,-3.7961,-3.7924,-3.7924,-3.7907,-3.7907,-3.7907]}]]